Tracking 29892 objects as of 21-Nov-2024
HD Live streaming from Space Station
objects crossing your sky now

STARLINK-6146

Track STARLINK-6146 now!
10-day predictions
STARLINK-6146 is classified as:


NORAD ID: 57124
Int'l Code: 2023-090Z
Perigee: 565.4 km
Apogee: 567.1 km
Inclination: 43.0 °
Period: 95.8 minutes
Semi major axis: 6937 km
RCS: Unknown
Launch date: June 23, 2023
Source: United States (US)
Launch site: AIR FORCE EASTERN TEST RANGE (AFETR)
Your satellite tracking list
Your tracking list is empty




NASA's NSSDC Master Catalog

Two Line Element Set (TLE):
1 57124U 23090Z   24325.41910696  .00000509  00000-0  52728-4 0  9997
2 57124  43.0028 331.4583 0001214 265.6755  94.3949 15.02537228 79075
Source of the keplerian elements: AFSPC